Theta_e
304 305 305 305 304 304 304 304 305 305 304 304 304 306 306 306 306 305 304 304 306 306 306 306 308 308 309 309 312 313 313 313 314 313 315 316 315 317 321 327 328 329 328 329 331 332 333
306 306 305 304 305 304 305 305 305 305 304 304 305 305 306 306 306 306 305 303 302 302 303 307 307 308 310 309 309 310 313 313 314 316 318 321 320 319 321 323 325 328 328 328 329 329 330
305 305 304 304 305 305 305 305 305 305 305 305 305 305 305 305 305 305 305 304 303 302 302 306 308 308 310 309 308 310 310 311 313 314 318 319 323 324 322 322 324 325 328 329 330 329 330
304 304 304 304 305 304 304 305 305 304 304 304 304 304 303 303 302 302 301 301 301 301 304 304 309 309 310 307 307 308 308 309 309 311 313 314 317 318 322 323 324 325 326 329 329 330 330
304 304 304 304 304 303 304 304 304 304 305 305 305 305 304 303 303 302 301 301 300 302 306 307 311 310 310 309 310 310 309 309 309 309 311 313 314 317 318 322 324 325 328 328 329 329 329
304 304 304 304 304 303 303 304 304 304 305 305 305 305 305 303 302 301 301 303 306 307 309 311 312 312 313 312 310 309 311 312 310 310 312 314 315 316 317 319 326 325 326 327 329 329 329
304 304 304 305 304 303 304 304 304 305 305 305 305 304 304 303 303 301 304 309 309 311 312 315 314 314 312 310 308 308 308 309 312 314 311 313 315 317 317 318 319 322 326 326 328 328 329
304 304 304 304 304 303 304 304 304 304 303 303 303 303 304 302 301 301 305 310 309 308 308 308 308 308 307 307 307 308 308 308 310 313 314 313 317 318 317 317 317 318 322 325 327 326 328
303 303 304 303 303 303 303 304 303 303 303 303 303 302 305 303 301 307 309 308 307 307 309 308 308 308 308 308 308 308 308 307 307 309 313 313 315 316 317 317 317 319 320 323 324 324 326
303 303 303 302 301 301 302 302 302 301 302 302 302 302 302 301 307 307 308 307 306 306 308 309 308 309 309 309 309 309 309 309 308 307 309 312 315 314 316 318 318 320 319 319 321 323 326
303 302 302 301 301 300 302 301 301 300 301 301 302 301 303 303 307 309 307 307 307 307 312 309 312 311 311 312 313 313 312 310 308 308 308 308 311 315 314 317 318 320 318 319 320 322 325
300 299 300 301 301 302 302 302 301 300 300 301 302 302 305 308 308 309 307 307 307 312 314 309 310 308 309 310 312 313 313 313 311 309 309 309 310 311 315 315 316 319 319 319 321 323 326
297 296 299 301 300 300 302 301 300 299 300 301 302 302 306 307 308 307 307 308 312 313 310 306 306 306 307 307 308 311 311 311 315 317 313 311 309 309 311 314 317 317 323 324 324 324 325
294 294 297 301 301 301 302 301 301 300 300 300 302 304 308 309 307 307 307 310 311 311 307 306 306 306 307 308 307 307 309 311 311 311 314 317 319 310 310 312 317 318 322 323 323 324 324
293 294 298 300 301 301 300 300 301 300 300 300 304 309 309 308 308 308 311 311 310 309 305 306 306 310 309 310 309 308 307 308 309 311 315 317 317 316 314 312 315 318 319 321 325 323 323
293 294 298 298 301 301 300 300 301 301 301 302 305 310 309 309 308 308 312 310 308 306 305 305 306 308 310 309 309 310 311 311 312 311 312 312 313 312 317 312 313 318 318 321 324 326 327
292 293 295 298 300 300 299 299 301 301 301 304 308 312 311 307 309 310 313 309 307 306 306 306 307 308 310 310 311 310 309 310 312 311 310 311 313 313 316 318 312 317 319 320 324 323 326
291 292 293 296 299 300 300 299 300 301 301 305 310 312 309 308 313 314 312 308 308 308 306 305 307 307 308 311 310 310 310 312 311 311 312 311 315 317 315 317 316 316 318 321 324 326 325
291 291 292 294 298 298 300 299 300 301 301 304 312 311 310 308 314 311 309 308 308 307 307 309 307 307 309 310 313 311 313 312 310 311 314 315 318 319 318 317 319 321 319 322 325 329 328
292 291 291 292 294 297 299 299 301 301 301 304 312 314 310 309 310 309 309 308 308 309 309 308 308 308 309 311 310 311 312 312 312 313 312 313 315 317 321 320 321 325 323 320 323 327 327
292 292 292 292 292 293 298 299 300 301 301 305 310 312 310 311 310 308 308 308 310 309 307 308 309 309 309 310 308 311 311 311 312 312 313 313 316 315 317 315 320 322 327 322 321 326 326
292 292 292 292 292 294 297 297 300 301 302 307 311 308 307 308 309 309 309 309 309 309 309 309 310 310 310 310 310 311 311 311 312 312 312 314 319 317 319 316 316 320 321 324 321 322 325
294 293 293 293 292 294 297 295 299 302 302 307 306 306 306 308 309 310 311 309 310 309 310 308 309 312 311 310 310 310 310 311 311 311 312 315 319 322 320 316 319 320 322 324 323 324 326
302 299 295 294 293 293 296 296 298 301 302 304 305 307 308 309 308 309 310 309 309 308 309 310 310 311 311 310 311 312 313 312 311 311 312 313 315 318 321 320 320 319 323 323 322 325 326
304 304 304 300 295 295 294 296 299 299 302 304 304 306 308 309 308 309 309 309 309 309 309 310 310 310 310 311 312 313 315 313 313 313 313 313 313 322 323 324 320 325 328 329 324 328 329
305 305 305 304 301 296 297 296 298 300 301 303 305 305 307 308 309 308 309 310 310 309 309 309 309 310 311 311 312 314 317 317 316 314 314 313 314 320 321 328 326 327 325 325 328 335 329
305 305 305 304 304 304 299 299 300 301 299 302 304 305 307 307 308 308 311 310 309 309 310 309 309 310 312 313 313 316 316 314 318 321 321 314 317 320 321 323 321 321 323 325 333 333 328
304 305 304 305 304 304 302 300 300 300 301 301 303 305 307 308 308 308 309 310 310 310 310 309 308 310 313 314 313 314 317 314 317 317 319 323 322 324 323 322 325 316 321 327 326 326 325
304 304 304 304 304 304 304 303 301 300 301 300 302 306 307 307 308 306 307 308 309 309 307 306 307 308 309 311 313 314 316 314 315 318 315 321 317 318 322 320 316 316 318 317 319 322 323
Wind_Speed
18 18 19 19 20 20 20 19 20 20 19 20 20 21 23 24 25 26 25 24 22 21 21 21 19 18 14 10 13 15 7 0 8 16 22 22 24 22 29 26 25 31 28 28 29 26 27
18 18 18 19 19 19 19 20 21 21 21 22 22 22 23 24 25 27 27 26 26 25 25 20 17 14 13 22 13 17 16 16 15 17 25 24 22 24 25 29 30 28 29 31 29 30 29
19 19 20 21 22 21 21 21 21 21 21 21 22 23 25 26 26 26 27 29 29 30 28 23 16 14 18 23 20 21 20 17 20 23 19 21 23 24 26 31 29 30 33 31 32 30 31
18 19 20 20 21 22 21 21 22 22 22 22 23 24 25 25 27 28 29 31 31 32 25 22 16 14 13 17 20 23 25 26 27 26 26 24 24 22 23 28 32 32 32 30 29 29 33
19 19 19 20 21 22 22 22 21 21 21 22 23 24 25 25 27 29 32 35 33 22 18 13 8 12 14 15 14 19 20 25 25 25 27 24 23 20 18 21 22 29 23 33 33 30 30
19 20 21 21 22 23 23 23 22 22 22 23 24 25 26 27 31 32 37 33 26 21 13 12 17 11 19 12 16 5 8 8 13 17 18 21 15 19 18 19 24 23 30 34 29 26 27
19 19 19 21 21 22 23 23 24 23 24 25 26 28 29 30 31 32 31 18 12 5 11 18 14 13 23 17 5 10 9 12 9 13 20 21 17 25 42 31 30 26 32 33 29 25 27
18 19 20 21 22 23 23 24 24 25 26 28 30 30 31 32 31 29 20 10 15 11 18 19 26 31 35 34 28 25 22 17 15 17 19 20 28 37 23 29 30 33 33 31 28 26 23
17 19 20 21 22 24 24 25 27 27 28 30 32 36 33 31 27 16 11 13 17 17 16 30 35 30 26 26 26 24 21 22 22 21 20 23 36 25 28 28 31 32 33 26 30 24 27
18 19 21 23 23 25 27 28 29 30 31 31 33 37 30 22 11 18 13 18 17 18 9 11 9 6 15 11 19 18 23 23 24 26 22 24 25 31 29 33 31 28 28 28 27 22 21
21 22 23 24 26 26 27 28 29 29 31 32 35 31 19 7 11 9 16 19 16 7 6 12 16 10 16 9 7 8 9 15 24 22 20 33 24 26 30 36 28 34 22 26 27 25 21
22 23 24 24 25 25 26 27 27 29 31 32 35 21 16 11 12 16 19 15 12 4 5 11 6 8 12 14 18 14 8 11 13 21 20 28 26 27 27 28 32 26 29 27 25 19 18
22 23 23 23 25 25 25 27 27 29 30 32 30 13 12 11 12 18 16 7 5 4 18 7 19 18 17 14 15 15 14 9 7 8 18 24 26 29 29 29 28 31 22 16 18 17 22
23 23 23 23 24 25 25 26 28 30 31 33 24 11 12 12 14 13 12 3 4 9 17 21 18 21 19 20 17 19 7 10 19 16 14 15 19 27 26 31 27 29 26 15 24 17 19
23 23 24 24 25 24 25 27 30 30 32 31 24 15 12 8 10 9 6 2 3 12 17 19 21 17 16 16 15 20 13 17 13 11 7 8 12 21 22 29 29 28 28 29 23 21 16
24 24 25 25 25 25 26 28 30 32 34 21 18 15 8 8 8 7 5 9 9 14 13 17 17 14 21 24 6 11 11 6 12 5 1 7 16 20 29 27 32 31 20 26 18 25 22
25 25 26 25 25 26 29 28 28 31 34 18 10 4 5 5 7 4 4 10 19 18 13 15 16 15 18 20 18 13 8 15 8 8 5 11 11 23 23 21 28 23 25 22 21 17 16
25 26 27 26 25 25 28 29 28 30 33 17 8 5 7 4 4 4 6 20 22 21 15 14 11 13 10 19 21 20 18 7 0 7 12 14 6 17 25 25 15 29 25 23 15 25 17
24 25 26 27 25 25 28 29 26 27 25 16 5 8 6 4 4 9 15 17 19 17 16 19 13 16 12 13 7 6 4 13 6 5 3 7 6 11 18 20 22 18 28 25 19 12 20
23 24 25 26 26 25 27 29 26 25 22 16 5 4 5 8 6 10 15 16 17 18 14 19 20 18 5 12 19 5 5 10 7 8 10 3 6 15 11 13 13 10 20 31 25 17 17
23 23 25 26 27 26 25 27 26 24 23 12 3 4 8 7 10 13 14 16 18 17 17 19 12 17 21 22 19 14 14 11 7 5 5 3 5 14 19 19 15 19 29 27 31 23 22
23 23 24 25 28 28 24 26 24 23 24 6 5 5 8 13 13 14 13 13 19 21 19 16 15 20 20 19 19 21 18 16 9 4 0 4 4 15 20 16 8 21 32 25 29 27 27
23 23 23 24 26 28 23 25 21 19 18 6 8 11 3 9 11 11 8 13 18 20 12 19 19 18 18 16 18 22 20 20 21 18 14 7 3 6 6 10 3 15 23 23 22 24 27
23 24 24 24 25 26 23 23 22 15 12 12 18 13 3 9 12 14 16 11 18 21 22 22 20 13 13 19 22 20 20 20 20 21 17 16 12 6 3 9 2 13 13 17 19 18 23
24 25 26 26 25 24 25 24 22 17 12 13 17 8 2 7 15 14 19 18 16 18 18 14 13 13 17 15 11 11 8 14 21 23 20 15 9 4 4 8 10 15 8 18 18 4 18
25 26 27 26 25 24 24 24 23 19 14 12 15 18 4 4 4 21 16 15 11 12 13 17 18 16 14 7 9 10 3 5 5 6 11 10 8 3 4 2 6 4 23 28 16 11 20
26 26 28 27 26 26 24 23 22 19 15 13 15 17 8 4 14 14 15 11 8 7 8 17 15 11 6 6 5 5 7 14 6 7 9 3 3 7 7 3 3 14 26 16 4 3 10
27 28 29 28 26 26 25 23 21 20 17 13 17 17 11 3 16 19 13 15 15 4 3 6 8 5 5 6 4 4 3 6 7 5 6 5 7 3 3 3 2 20 15 10 3 7 13
25 29 30 30 28 27 26 25 22 20 19 14 12 10 12 5 14 35 32 27 19 8 1 0 3 7 3 3 4 3 2 4 8 4 8 3 4 4 5 3 5 11 11 10 9 10 14
Wind_Direction
24 20 16 13 9 7 6 359 356 353 351 347 344 342 341 340 337 334 332 327 320 316 314 312 312 321 329 246 247 277 285 229 190 210 229 234 233 234 238 234 240 241 242 248 252 252 258
20 19 14 11 9 7 6 3 359 355 355 354 351 346 339 336 332 329 326 324 320 318 313 303 303 305 279 267 269 266 261 249 245 242 227 223 235 235 249 239 240 244 246 250 252 257 260
17 17 17 10 8 5 2 359 356 353 352 349 343 339 335 332 329 325 322 319 314 313 310 301 287 275 266 256 275 279 291 277 253 248 253 254 242 234 243 249 251 254 257 259 256 260 264
21 19 16 9 4 1 0 358 354 356 352 347 346 340 337 333 331 328 324 317 310 307 305 300 279 260 260 261 255 264 260 253 252 257 258 261 269 286 256 256 259 249 255 259 254 255 258
19 13 9 4 2 359 360 357 354 352 347 344 341 337 335 331 327 324 322 313 303 292 293 284 265 218 275 277 234 248 247 255 253 244 241 243 253 259 269 249 246 245 246 249 250 247 262
14 9 6 5 2 1 1 357 353 348 346 343 339 336 334 331 329 327 324 313 298 283 277 248 243 252 239 275 272 195 277 229 231 248 250 228 229 239 241 236 226 221 235 241 255 250 250
11 9 6 3 2 0 359 353 350 347 346 344 342 338 334 329 326 326 327 325 351 228 228 267 278 217 293 295 223 233 268 265 239 248 233 227 216 222 220 220 239 235 238 247 252 247 248
8 5 3 2 0 359 355 351 348 346 347 346 343 338 332 326 323 323 313 293 334 316 297 280 267 267 266 273 271 266 264 252 247 241 231 227 220 227 234 230 236 243 252 253 261 258 262
6 4 359 357 357 356 354 351 349 347 346 344 343 339 330 323 324 315 284 318 331 304 290 280 263 261 262 249 249 251 242 243 243 249 235 224 237 229 239 232 238 237 240 247 258 268 269
1 358 356 356 355 353 351 349 346 347 345 343 343 339 335 334 312 321 312 340 324 339 292 288 216 211 224 252 255 248 238 231 239 239 248 249 243 242 230 238 231 240 235 245 252 252 256
356 355 354 357 351 351 349 346 344 344 344 343 342 339 342 329 313 319 331 325 331 321 275 34 32 30 350 321 275 174 225 225 234 240 231 244 249 237 238 238 231 246 240 248 249 249 260
357 356 354 354 349 349 345 341 343 344 342 342 341 337 341 9 250 312 331 325 335 256 237 8 17 308 344 342 323 310 221 210 235 237 247 253 252 255 252 241 247 243 243 252 257 257 248
354 353 351 349 349 347 343 341 344 344 341 343 340 320 308 303 328 327 321 316 285 269 297 18 348 343 327 293 267 233 260 259 213 277 245 244 243 253 250 255 232 239 238 231 238 234 244
352 351 349 345 345 347 340 339 341 344 341 343 334 297 291 286 338 329 329 324 290 325 338 353 347 330 315 323 291 285 261 273 279 232 246 271 274 224 239 245 242 218 233 224 219 221 240
353 351 347 345 346 345 343 341 341 345 341 344 331 290 267 358 338 346 320 333 258 290 352 339 342 349 334 318 341 320 276 267 276 336 242 307 276 277 276 240 242 244 220 236 248 234 249
354 351 348 347 346 346 346 346 345 347 340 346 322 308 261 326 340 306 307 297 270 331 329 334 339 324 309 318 307 309 329 338 293 165 352 303 289 280 289 223 241 240 232 222 228 232 242
357 354 351 349 349 348 349 348 345 343 340 344 294 234 116 345 307 300 295 300 318 319 334 324 326 310 324 322 315 313 232 235 267 293 273 266 256 272 283 266 215 230 235 220 242 227 235
359 356 353 350 347 347 348 349 344 346 346 357 299 293 117 15 313 275 308 322 308 309 335 328 331 312 323 306 305 308 298 22 356 325 299 301 289 270 261 273 269 232 230 232 219 220 230
356 356 355 354 348 348 351 351 345 347 354 331 289 322 136 226 326 328 317 327 318 336 336 325 321 313 331 328 312 297 9 314 311 326 319 354 250 266 259 273 262 247 226 235 240 237 215
350 352 353 354 351 344 347 353 346 344 348 338 280 336 329 332 334 320 313 318 321 319 322 332 321 311 335 288 288 281 334 260 248 279 295 325 270 269 271 268 343 303 271 225 228 215 222
346 348 350 350 349 347 343 351 347 343 342 329 310 281 350 298 313 314 298 294 314 331 337 332 318 326 328 327 316 327 315 311 345 336 255 163 275 287 281 250 269 290 282 248 220 202 222
343 345 347 348 348 346 345 350 350 347 340 258 342 335 340 301 304 297 321 322 316 327 327 317 324 324 319 308 310 312 312 306 302 249 137 239 273 283 282 250 244 293 285 277 221 198 213
341 341 343 345 346 347 346 352 353 350 354 311 352 303 273 290 297 326 295 324 314 318 308 310 319 322 316 323 313 297 286 279 279 279 272 255 281 299 251 185 293 271 243 250 220 203 210
343 341 341 341 342 346 341 346 355 347 344 311 299 311 294 292 317 327 336 315 312 318 305 314 306 305 307 319 307 282 257 254 252 251 245 249 276 290 328 84 269 258 255 234 217 204 207
336 340 342 340 339 339 341 336 338 346 327 312 297 291 281 287 311 316 338 337 322 318 313 317 323 347 321 315 300 305 314 240 228 230 231 220 249 270 239 177 293 293 10 332 205 103 10
331 331 334 337 339 337 336 334 333 334 330 314 289 287 262 297 309 326 319 315 318 323 317 325 331 346 323 316 326 321 284 335 311 300 245 180 211 192 331 220 209 340 336 323 331 74 20
325 327 328 331 335 336 334 331 329 327 331 312 285 285 272 255 272 317 314 307 314 305 293 312 346 318 342 334 334 340 339 348 5 9 332 247 260 263 285 241 312 324 332 299 143 64 2
321 324 325 326 328 332 331 328 326 326 326 317 284 281 256 254 291 283 315 301 304 322 296 325 319 356 334 347 344 360 309 345 340 337 348 340 320 342 281 202 351 335 349 48 324 340 16
319 319 319 321 323 325 327 326 322 323 319 312 286 297 272 230 275 288 281 278 276 285 210 12 293 308 315 323 344 325 313 315 330 7 349 28 21 319 1 1 329 319 346 1 346 40 9